Location: Betzi
(47.2343°N, 9.5260°E)
Time: 16:05:25
(UTC+00:00)

Cosmos 2074 Rocket - Pass Details

Date: 27 May 2022
Orbit: 968 x 985 km, 82.9° (Epoch: 06 July)

Event Time Altitude Azimuth Distance (km) Brightness Sun altitude
Rises 01:45:52 0° 346° (NNW) 3,702 7.7 -13.9°
Reaches altitude 10° 01:48:28 10° 341° (NNW) 2,751 6.8 -13.7°
Maximum altitude 01:54:26 46° 270° (W) 1,304 4.4 -13.1°
Enters shadow 01:59:13 16° 204° (SSW) 2,344 5.4 -12.6°
